Time,TemperatureF,DewpointF,PressureIn,WindDirection,WindDirectionDegrees,WindSpeedMPH,WindSpeedGustMPH,Humidity,HourlyPrecipIn,Conditions,Clouds,dailyrainin,SoftwareType,DateUTC
2013-08-07 00:01:00,67.1,66.2,30.02,West,262,0.0,1.0,97,0.58,,,0.74,meteohub,2013-08-07 04:01:00,
2013-08-07 00:02:00,67.1,66.2,30.02,West,259,0.0,1.0,97,0.58,,,0.74,meteohub,2013-08-07 04:02:00,
2013-08-07 00:07:00,66.9,66.4,30.02,SW,236,0.0,1.0,98,0.64,,,0.80,meteohub,2013-08-07 04:07:00,
2013-08-07 00:12:00,66.9,66.4,30.02,SSW,192,0.0,3.0,98,0.76,,,0.92,meteohub,2013-08-07 04:12:00,
2013-08-07 00:17:00,66.9,66.4,30.02,SSW,192,0.0,3.0,98,0.75,,,0.93,meteohub,2013-08-07 04:17:00,
2013-08-07 00:22:00,66.7,65.8,30.02,SSW,193,0.0,3.0,97,0.76,,,0.94,meteohub,2013-08-07 04:22:00,
2013-08-07 00:27:00,66.7,66.2,30.02,SSW,193,0.0,1.0,98,0.76,,,0.95,meteohub,2013-08-07 04:27:00,
2013-08-07 00:32:00,66.7,66.2,30.02,SSW,194,0.0,0.0,98,0.76,,,0.95,meteohub,2013-08-07 04:32:00,
2013-08-07 00:37:00,66.7,66.2,30.02,SSW,194,0.0,0.0,98,0.77,,,0.97,meteohub,2013-08-07 04:37:00,
2013-08-07 00:42:00,66.7,66.2,30.02,SSW,193,0.0,0.0,98,0.77,,,0.98,meteohub,2013-08-07 04:42:00,
2013-08-07 00:47:00,66.9,66.4,30.02,SSW,194,0.0,0.0,98,0.76,,,0.98,meteohub,2013-08-07 04:47:00,
2013-08-07 00:52:00,66.9,66.4,30.02,SSW,193,0.0,0.0,98,0.65,,,0.98,meteohub,2013-08-07 04:52:00,
2013-08-07 00:57:00,66.7,66.2,30.02,SSW,192,0.0,0.0,98,0.40,,,0.98,meteohub,2013-08-07 04:57:00,
2013-08-07 00:58:00,66.7,66.2,30.02,SSW,193,0.0,0.0,98,0.40,,,0.98,meteohub,2013-08-07 04:58:00,
2013-08-07 01:03:00,66.7,66.2,30.02,SSW,193,0.0,0.0,98,0.24,,,0.98,meteohub,2013-08-07 05:03:00,
2013-08-07 01:08:00,66.7,66.2,30.02,SSW,193,0.0,0.0,98,0.11,,,0.98,meteohub,2013-08-07 05:08:00,
2013-08-07 01:13:00,66.7,66.2,30.02,SSW,193,0.0,0.0,98,0.06,,,0.98,meteohub,2013-08-07 05:13:00,
2013-08-07 01:18:00,66.7,66.2,30.02,SSW,192,0.0,0.0,98,0.05,,,0.98,meteohub,2013-08-07 05:18:00,
2013-08-07 01:23:00,66.7,66.2,30.02,SSW,193,0.0,0.0,98,0.04,,,0.98,meteohub,2013-08-07 05:23:00,
2013-08-07 01:28:00,66.7,66.2,30.02,SSW,193,0.0,0.0,98,0.03,,,0.98,meteohub,2013-08-07 05:28:00,
2013-08-07 01:33:00,66.7,66.2,30.02,SSW,193,0.0,0.0,98,0.02,,,0.98,meteohub,2013-08-07 05:33:00,
2013-08-07 01:38:00,66.7,66.2,30.02,SSW,193,0.0,0.0,98,0.01,,,0.98,meteohub,2013-08-07 05:38:00,
2013-08-07 01:43:00,66.7,66.2,30.02,SSW,193,0.0,0.0,98,0.00,,,0.98,meteohub,2013-08-07 05:43:00,
2013-08-07 01:48:00,66.7,66.2,30.02,SSW,193,0.0,0.0,98,0.00,,,0.98,meteohub,2013-08-07 05:48:00,
2013-08-07 01:53:00,66.7,66.2,30.02,SSW,192,0.0,0.0,98,0.00,,,0.98,meteohub,2013-08-07 05:53:00,
2013-08-07 01:58:00,66.7,66.2,30.02,SSW,193,0.0,0.0,98,0.00,,,0.98,meteohub,2013-08-07 05:58:00,
2013-08-07 02:03:00,66.7,66.2,30.02,SSW,192,0.0,0.0,98,0.00,,,0.98,meteohub,2013-08-07 06:03:00,
2013-08-07 02:08:00,66.7,66.2,30.02,SSW,193,0.0,0.0,98,0.00,,,0.98,meteohub,2013-08-07 06:08:00,
2013-08-07 02:13:00,66.7,66.2,30.02,SSW,193,0.0,0.0,98,0.00,,,0.98,meteohub,2013-08-07 06:13:00,
2013-08-07 02:18:00,66.7,66.2,30.02,SSW,193,0.0,0.0,98,0.00,,,0.98,meteohub,2013-08-07 06:18:00,
2013-08-07 02:23:00,66.7,66.2,30.01,SSW,193,0.0,0.0,98,0.00,,,0.98,meteohub,2013-08-07 06:23:00,
2013-08-07 02:28:00,66.7,66.2,30.01,SSW,193,0.0,0.0,98,0.00,,,0.98,meteohub,2013-08-07 06:28:00,
2013-08-07 02:33:00,66.7,66.2,30.01,SSW,193,0.0,0.0,98,0.00,,,0.98,meteohub,2013-08-07 06:33:00,
2013-08-07 02:38:00,66.7,66.2,30.01,SSW,195,0.0,0.0,98,0.00,,,0.98,meteohub,2013-08-07 06:38:00,
2013-08-07 02:43:00,66.7,66.2,30.01,SSW,200,0.0,0.0,98,0.00,,,0.98,meteohub,2013-08-07 06:43:00,
2013-08-07 02:48:00,66.7,66.2,30.00,SSW,200,0.0,0.0,98,0.00,,,0.98,meteohub,2013-08-07 06:48:00,
2013-08-07 02:53:00,66.7,66.2,30.00,SSW,200,0.0,0.0,98,0.00,,,0.98,meteohub,2013-08-07 06:53:00,
2013-08-07 02:58:00,66.7,66.2,29.99,SSW,200,0.0,0.0,98,0.00,,,0.98,meteohub,2013-08-07 06:58:00,
2013-08-07 03:03:00,66.7,66.2,29.99,SSW,200,0.0,0.0,98,0.00,,,0.98,meteohub,2013-08-07 07:03:00,
2013-08-07 03:08:00,66.7,66.2,29.99,SSW,199,0.0,0.0,98,0.00,,,0.98,meteohub,2013-08-07 07:08:00,
2013-08-07 03:13:00,66.7,66.2,29.99,SSW,200,0.0,0.0,98,0.00,,,0.98,meteohub,2013-08-07 07:13:00,
2013-08-07 03:18:00,66.7,66.2,29.99,SSW,200,0.0,0.0,98,0.00,,,0.98,meteohub,2013-08-07 07:18:00,
2013-08-07 03:23:00,66.7,66.2,29.99,SSW,200,0.0,0.0,98,0.00,,,0.98,meteohub,2013-08-07 07:23:00,
2013-08-07 03:28:00,66.7,66.2,29.99,SSW,200,0.0,0.0,98,0.00,,,0.98,meteohub,2013-08-07 07:28:00,
2013-08-07 03:33:00,66.7,66.2,29.99,SSW,200,0.0,0.0,98,0.00,,,0.98,meteohub,2013-08-07 07:33:00,
2013-08-07 03:38:00,66.7,66.2,29.99,SSW,200,0.0,0.0,98,0.00,,,0.98,meteohub,2013-08-07 07:38:00,
2013-08-07 03:43:00,66.7,66.2,29.99,SSW,199,0.0,0.0,98,0.00,,,0.98,meteohub,2013-08-07 07:43:00,
2013-08-07 03:48:00,66.7,66.2,29.99,SSW,200,0.0,0.0,98,0.00,,,0.98,meteohub,2013-08-07 07:48:00,
2013-08-07 03:53:00,66.9,66.4,29.99,East,95,0.0,0.0,98,0.00,,,0.98,meteohub,2013-08-07 07:53:00,
2013-08-07 03:59:00,66.9,66.4,29.99,East,101,0.0,0.0,98,0.00,,,0.98,meteohub,2013-08-07 07:59:00,
2013-08-07 04:04:00,66.7,66.2,29.99,SW,219,0.0,1.0,98,0.00,,,0.98,meteohub,2013-08-07 08:04:00,
2013-08-07 04:09:00,66.7,66.2,29.99,West,259,0.0,2.0,98,0.00,,,0.98,meteohub,2013-08-07 08:09:00,
2013-08-07 04:14:00,66.7,66.2,30.00,SSW,209,0.0,2.0,98,0.00,,,0.98,meteohub,2013-08-07 08:14:00,
2013-08-07 04:19:00,66.7,66.2,30.00,WSW,238,0.0,2.0,98,0.00,,,0.98,meteohub,2013-08-07 08:19:00,
2013-08-07 04:24:00,66.7,66.2,30.00,SSE,167,0.0,2.0,98,0.00,,,0.98,meteohub,2013-08-07 08:24:00,
2013-08-07 04:29:00,66.7,66.2,30.00,WSW,250,0.0,2.0,98,0.00,,,0.98,meteohub,2013-08-07 08:29:00,
2013-08-07 04:34:00,66.7,66.2,30.00,WSW,250,0.0,1.0,98,0.00,,,0.98,meteohub,2013-08-07 08:34:00,
2013-08-07 04:39:00,66.7,66.2,30.00,WSW,250,0.0,1.0,98,0.01,,,0.99,meteohub,2013-08-07 08:39:00,
2013-08-07 04:44:00,66.7,66.2,30.00,WSW,240,0.0,0.0,98,0.01,,,0.99,meteohub,2013-08-07 08:44:00,
2013-08-07 04:49:00,66.7,66.2,30.00,WSW,240,0.0,1.0,98,0.01,,,0.99,meteohub,2013-08-07 08:49:00,
2013-08-07 04:54:00,66.7,66.2,30.00,WSW,240,0.0,1.0,98,0.01,,,0.99,meteohub,2013-08-07 08:54:00,
2013-08-07 04:59:00,66.6,66.0,30.00,WSW,240,0.0,1.0,98,0.01,,,0.99,meteohub,2013-08-07 08:59:00,
2013-08-07 05:04:00,66.6,66.0,30.00,WSW,240,0.0,0.0,98,0.01,,,0.99,meteohub,2013-08-07 09:04:00,
2013-08-07 05:09:00,66.6,66.0,30.00,WSW,240,0.0,0.0,98,0.01,,,0.99,meteohub,2013-08-07 09:09:00,
2013-08-07 05:14:00,66.7,66.2,30.00,WSW,240,0.0,0.0,98,0.01,,,0.99,meteohub,2013-08-07 09:14:00,
2013-08-07 05:19:00,66.6,66.0,30.00,WSW,240,0.0,0.0,98,0.01,,,0.99,meteohub,2013-08-07 09:19:00,
2013-08-07 05:24:00,66.6,66.0,30.00,SSE,147,0.0,0.0,98,0.01,,,0.99,meteohub,2013-08-07 09:24:00,
2013-08-07 05:29:00,66.6,66.0,30.01,SE,146,0.0,0.0,98,0.01,,,0.99,meteohub,2013-08-07 09:29:00,
2013-08-07 05:34:00,66.6,66.0,30.01,SE,146,0.0,0.0,98,0.01,,,0.99,meteohub,2013-08-07 09:34:00,
2013-08-07 05:39:00,66.6,66.0,30.01,SSE,147,0.0,0.0,98,0.00,,,0.99,meteohub,2013-08-07 09:39:00,
2013-08-07 05:44:00,66.6,66.0,30.01,SSE,147,0.0,0.0,98,0.00,,,0.99,meteohub,2013-08-07 09:44:00,
2013-08-07 05:49:00,66.6,66.0,30.01,SE,146,0.0,0.0,98,0.00,,,0.99,meteohub,2013-08-07 09:49:00,
2013-08-07 05:54:00,66.6,66.0,30.01,SSE,148,0.0,0.0,98,0.00,,,0.99,meteohub,2013-08-07 09:54:00,
2013-08-07 05:59:00,66.6,66.0,30.01,SSE,148,0.0,0.0,98,0.00,,,0.99,meteohub,2013-08-07 09:59:00,
2013-08-07 06:04:00,66.7,66.2,30.01,SSE,148,0.0,0.0,98,0.00,,,0.99,meteohub,2013-08-07 10:04:00,
2013-08-07 06:09:00,66.7,66.2,30.01,SSE,147,0.0,0.0,98,0.00,,,0.99,meteohub,2013-08-07 10:09:00,
2013-08-07 06:14:00,66.7,66.2,30.01,SSE,148,0.0,0.0,98,0.00,,,0.99,meteohub,2013-08-07 10:14:00,
2013-08-07 06:19:00,66.7,66.2,30.01,SSE,148,0.0,0.0,98,0.00,,,0.99,meteohub,2013-08-07 10:19:00,
2013-08-07 06:24:00,66.7,66.2,30.01,SSE,148,0.0,0.0,98,0.00,,,0.99,meteohub,2013-08-07 10:24:00,
2013-08-07 06:29:00,66.7,66.2,30.01,SSE,148,0.0,0.0,98,0.00,,,0.99,meteohub,2013-08-07 10:29:00,
2013-08-07 06:34:00,66.7,66.2,30.01,SSE,148,0.0,0.0,98,0.00,,,0.99,meteohub,2013-08-07 10:34:00,
2013-08-07 06:39:00,66.7,66.2,30.01,SSE,148,0.0,0.0,98,0.00,,,0.99,meteohub,2013-08-07 10:39:00,
2013-08-07 06:44:00,66.7,66.2,30.01,SSE,160,0.0,0.0,98,0.00,,,0.99,meteohub,2013-08-07 10:44:00,
2013-08-07 06:49:00,66.7,66.2,30.01,SW,226,0.0,0.0,98,0.00,,,0.99,meteohub,2013-08-07 10:49:00,
2013-08-07 06:54:00,66.7,66.2,30.01,NW,309,0.0,0.0,98,0.00,,,0.99,meteohub,2013-08-07 10:54:00,
2013-08-07 06:59:00,66.7,66.2,30.01,SW,231,0.0,0.0,98,0.00,,,0.99,meteohub,2013-08-07 10:59:00,
2013-08-07 07:04:00,66.7,66.2,30.01,South,188,0.0,0.0,98,0.00,,,0.99,meteohub,2013-08-07 11:04:00,
2013-08-07 07:09:00,66.7,66.2,30.01,South,188,0.0,0.0,98,0.00,,,0.99,meteohub,2013-08-07 11:09:00,
2013-08-07 07:14:00,66.7,66.2,30.01,South,188,0.0,0.0,98,0.00,,,0.99,meteohub,2013-08-07 11:14:00,
2013-08-07 07:19:00,66.7,66.2,30.01,ENE,76,0.0,0.0,98,0.00,,,0.99,meteohub,2013-08-07 11:19:00,
2013-08-07 07:24:00,66.6,66.0,30.01,SW,226,0.0,0.0,98,0.00,,,0.99,meteohub,2013-08-07 11:24:00,
2013-08-07 07:29:00,66.6,66.0,30.01,WSW,248,0.0,4.0,98,0.00,,,0.99,meteohub,2013-08-07 11:29:00,
2013-08-07 07:34:00,66.6,66.0,30.01,SW,217,0.0,4.0,98,0.00,,,0.99,meteohub,2013-08-07 11:34:00,
2013-08-07 07:39:00,66.6,66.0,30.01,ESE,122,0.0,4.0,98,0.00,,,0.99,meteohub,2013-08-07 11:39:00,
2013-08-07 07:44:00,66.6,66.0,30.02,SSE,158,0.0,3.0,98,0.00,,,0.99,meteohub,2013-08-07 11:44:00,
2013-08-07 07:49:00,66.6,66.0,30.02,SSW,212,0.0,3.0,98,0.00,,,0.99,meteohub,2013-08-07 11:49:00,
2013-08-07 07:54:00,66.6,66.0,30.02,SE,146,0.0,2.0,98,0.00,,,0.99,meteohub,2013-08-07 11:54:00,
2013-08-07 07:59:00,66.7,66.2,30.03,SW,221,0.0,2.0,98,0.00,,,0.99,meteohub,2013-08-07 11:59:00,
2013-08-07 08:04:00,66.7,66.2,30.02,SE,125,0.0,2.0,98,0.00,,,0.99,meteohub,2013-08-07 12:04:00,
2013-08-07 08:09:00,66.7,66.2,30.01,WSW,248,0.0,1.0,98,0.00,,,0.99,meteohub,2013-08-07 12:09:00,
2013-08-07 08:14:00,66.9,66.4,30.02,SW,228,0.0,1.0,98,0.00,,,0.99,meteohub,2013-08-07 12:14:00,
2013-08-07 08:19:00,66.9,66.4,30.02,SW,228,0.0,2.0,98,0.00,,,0.99,meteohub,2013-08-07 12:19:00,
2013-08-07 08:24:00,67.1,66.6,30.03,SW,228,0.0,2.0,98,0.00,,,0.99,meteohub,2013-08-07 12:24:00,
2013-08-07 08:29:00,67.1,66.6,30.03,WSW,246,0.0,1.0,98,0.00,,,0.99,meteohub,2013-08-07 12:29:00,
2013-08-07 08:34:00,66.9,66.4,30.03,NNE,22,0.0,3.0,98,0.00,,,0.99,meteohub,2013-08-07 12:34:00,
2013-08-07 08:39:00,67.1,66.6,30.03,NNW,342,0.0,3.0,98,0.00,,,0.99,meteohub,2013-08-07 12:39:00,
2013-08-07 08:44:00,67.1,66.6,30.03,NNW,342,0.0,1.0,98,0.00,,,0.99,meteohub,2013-08-07 12:44:00,
2013-08-07 08:49:00,67.1,66.6,30.03,NNW,340,0.0,1.0,98,0.00,,,0.99,meteohub,2013-08-07 12:49:00,
2013-08-07 08:54:00,67.1,66.6,30.03,NNW,340,0.0,1.0,98,0.00,,,0.99,meteohub,2013-08-07 12:54:00,
2013-08-07 08:59:00,67.1,66.6,30.03,SW,215,0.0,0.0,98,0.00,,,0.99,meteohub,2013-08-07 12:59:00,
2013-08-07 09:04:00,67.3,66.7,30.03,SW,214,0.0,1.0,98,0.00,,,0.99,meteohub,2013-08-07 13:04:00,
2013-08-07 09:09:00,67.3,66.7,30.03,WSW,240,0.0,1.0,98,0.00,,,0.99,meteohub,2013-08-07 13:09:00,
2013-08-07 09:14:00,67.3,66.7,30.03,WSW,240,0.0,1.0,98,0.00,,,0.99,meteohub,2013-08-07 13:14:00,
2013-08-07 09:19:00,67.5,66.9,30.03,WSW,240,0.0,1.0,98,0.00,,,0.99,meteohub,2013-08-07 13:19:00,
2013-08-07 09:24:00,67.5,66.9,30.03,WSW,240,0.0,0.0,98,0.00,,,0.99,meteohub,2013-08-07 13:24:00,
2013-08-07 09:29:00,67.6,67.1,30.03,WSW,240,0.0,0.0,98,0.00,,,0.99,meteohub,2013-08-07 13:29:00,
2013-08-07 09:34:00,67.6,67.1,30.03,NE,34,0.0,0.0,98,0.00,,,0.99,meteohub,2013-08-07 13:34:00,
2013-08-07 09:39:00,67.6,67.1,30.03,NNW,346,0.0,0.0,98,0.00,,,0.99,meteohub,2013-08-07 13:39:00,
2013-08-07 09:44:00,67.6,67.1,30.03,NNE,33,0.0,0.0,98,0.00,,,0.99,meteohub,2013-08-07 13:44:00,
2013-08-07 09:49:00,67.8,67.3,30.03,NNE,27,0.0,1.0,98,0.00,,,0.99,meteohub,2013-08-07 13:49:00,
2013-08-07 09:54:00,68.2,67.6,30.03,SSW,208,0.0,1.0,98,0.00,,,0.99,meteohub,2013-08-07 13:54:00,
2013-08-07 09:59:00,68.0,67.5,30.03,West,276,0.0,1.0,98,0.00,,,0.99,meteohub,2013-08-07 13:59:00,
2013-08-07 10:04:00,67.8,67.3,30.03,SW,233,0.0,2.0,98,0.01,,,1.00,meteohub,2013-08-07 14:04:00,
2013-08-07 10:09:00,67.8,67.3,30.03,SSE,155,0.0,2.0,98,0.01,,,1.00,meteohub,2013-08-07 14:09:00,
2013-08-07 10:14:00,67.8,67.3,30.04,East,98,0.0,2.0,98,0.03,,,1.02,meteohub,2013-08-07 14:14:00,
2013-08-07 10:19:00,67.8,67.3,30.04,NNW,330,0.0,2.0,98,0.03,,,1.02,meteohub,2013-08-07 14:19:00,
2013-08-07 10:24:00,67.6,67.1,30.04,WSW,237,0.0,2.0,98,0.06,,,1.05,meteohub,2013-08-07 14:24:00,
2013-08-07 10:29:00,67.6,67.1,30.04,NNW,333,0.0,2.0,98,0.08,,,1.07,meteohub,2013-08-07 14:29:00,
2013-08-07 10:34:00,67.6,67.1,30.04,NNW,340,0.0,2.0,98,0.09,,,1.08,meteohub,2013-08-07 14:34:00,
2013-08-07 10:39:00,67.5,66.9,30.04,NW,306,0.0,2.0,98,0.09,,,1.08,meteohub,2013-08-07 14:39:00,
2013-08-07 10:44:00,67.5,66.9,30.04,North,350,0.0,1.0,98,0.10,,,1.09,meteohub,2013-08-07 14:44:00,
2013-08-07 10:49:00,67.5,66.9,30.04,North,350,0.0,1.0,98,0.10,,,1.09,meteohub,2013-08-07 14:49:00,
2013-08-07 10:55:00,67.6,67.1,30.04,WSW,243,0.0,1.0,98,0.10,,,1.09,meteohub,2013-08-07 14:55:00,
2013-08-07 11:00:00,67.6,67.1,30.05,WSW,243,0.0,1.0,98,0.10,,,1.09,meteohub,2013-08-07 15:00:00,
2013-08-07 11:05:00,67.6,67.1,30.05,WNW,290,0.0,1.0,98,0.09,,,1.09,meteohub,2013-08-07 15:05:00,
2013-08-07 11:10:00,67.6,67.1,30.05,South,187,1.0,2.0,98,0.07,,,1.09,meteohub,2013-08-07 15:10:00,
2013-08-07 11:15:00,67.5,66.9,30.05,SW,215,0.0,2.0,98,0.05,,,1.09,meteohub,2013-08-07 15:15:00,
2013-08-07 11:20:00,67.5,66.9,30.05,SSW,212,0.0,2.0,98,0.03,,,1.09,meteohub,2013-08-07 15:20:00,
2013-08-07 11:25:00,67.5,66.9,30.05,SSE,167,0.0,2.0,98,0.02,,,1.09,meteohub,2013-08-07 15:25:00,
2013-08-07 11:30:00,67.6,67.1,30.05,SSW,209,0.0,2.0,98,0.01,,,1.09,meteohub,2013-08-07 15:30:00,
2013-08-07 11:35:00,67.8,67.3,30.05,SSW,210,0.0,2.0,98,0.01,,,1.09,meteohub,2013-08-07 15:35:00,
2013-08-07 11:40:00,68.2,67.6,30.05,SSW,200,0.0,1.0,98,0.00,,,1.09,meteohub,2013-08-07 15:40:00,
2013-08-07 11:45:00,68.2,67.6,30.05,South,188,0.0,2.0,98,0.00,,,1.09,meteohub,2013-08-07 15:45:00,
2013-08-07 11:50:00,68.2,67.6,30.06,SW,214,0.0,2.0,98,0.00,,,1.09,meteohub,2013-08-07 15:50:00,
2013-08-07 11:55:00,68.2,67.6,30.05,NE,54,0.0,2.0,98,0.00,,,1.09,meteohub,2013-08-07 15:55:00,
2013-08-07 12:00:00,68.2,67.6,30.05,ENE,61,0.0,2.0,98,0.00,,,1.09,meteohub,2013-08-07 16:00:00,
2013-08-07 12:05:00,68.4,67.8,30.06,ESE,103,0.0,4.0,98,0.00,,,1.09,meteohub,2013-08-07 16:05:00,
2013-08-07 12:10:00,68.5,68.0,30.05,WSW,240,0.0,4.0,98,0.00,,,1.09,meteohub,2013-08-07 16:10:00,
2013-08-07 12:15:00,68.7,68.2,30.05,SW,228,0.0,2.0,98,0.00,,,1.09,meteohub,2013-08-07 16:15:00,
2013-08-07 12:20:00,68.9,68.4,30.05,SW,236,0.0,1.0,98,0.00,,,1.09,meteohub,2013-08-07 16:20:00,
2013-08-07 12:25:00,68.9,68.0,30.06,SSE,158,0.0,2.0,97,0.00,,,1.09,meteohub,2013-08-07 16:25:00,
2013-08-07 12:30:00,68.9,68.0,30.06,WNW,300,0.0,2.0,97,0.05,,,1.14,meteohub,2013-08-07 16:30:00,
2013-08-07 12:35:00,68.7,67.8,30.06,NW,312,0.0,2.0,97,0.13,,,1.22,meteohub,2013-08-07 16:35:00,
2013-08-07 12:40:00,68.4,67.1,30.06,SSE,153,2.0,2.0,96,0.32,,,1.41,meteohub,2013-08-07 16:40:00,
2013-08-07 12:45:00,68.2,67.3,30.06,NNE,16,0.0,3.0,97,0.41,,,1.50,meteohub,2013-08-07 16:45:00,
2013-08-07 12:50:00,68.0,67.1,30.06,NNE,14,0.0,3.0,97,0.46,,,1.55,meteohub,2013-08-07 16:50:00,
2013-08-07 12:55:00,67.6,66.7,30.06,WNW,283,0.0,3.0,97,0.53,,,1.62,meteohub,2013-08-07 16:55:00,
2013-08-07 13:00:00,67.5,66.6,30.05,SSE,152,0.0,1.0,97,0.55,,,1.64,meteohub,2013-08-07 17:00:00,
2013-08-07 13:05:00,67.1,65.8,30.05,SSW,209,0.0,1.0,96,0.57,,,1.66,meteohub,2013-08-07 17:05:00,
2013-08-07 13:10:00,66.9,66.0,30.05,NW,311,0.0,2.0,97,0.63,,,1.72,meteohub,2013-08-07 17:10:00,
2013-08-07 13:15:00,66.9,66.0,30.05,NW,312,0.0,2.0,97,0.67,,,1.76,meteohub,2013-08-07 17:15:00,
2013-08-07 13:20:00,66.7,65.8,30.05,SE,134,0.0,3.0,97,0.68,,,1.77,meteohub,2013-08-07 17:20:00,
2013-08-07 13:25:00,66.7,65.8,30.05,NNW,338,0.0,3.0,97,0.69,,,1.79,meteohub,2013-08-07 17:25:00,
2013-08-07 13:30:00,66.9,66.0,30.05,SSW,204,0.0,3.0,97,0.66,,,1.80,meteohub,2013-08-07 17:30:00,
2013-08-07 13:35:00,66.9,66.0,30.05,West,267,1.0,1.0,97,0.55,,,1.82,meteohub,2013-08-07 17:35:00,
2013-08-07 13:40:00,66.9,66.0,30.04,NNW,338,0.0,4.0,97,0.40,,,1.83,meteohub,2013-08-07 17:40:00,
2013-08-07 13:45:00,66.9,66.0,30.05,North,349,0.0,4.0,97,0.33,,,1.86,meteohub,2013-08-07 17:45:00,
2013-08-07 13:50:00,67.3,66.4,30.05,NNW,330,0.0,4.0,97,0.31,,,1.88,meteohub,2013-08-07 17:50:00,
2013-08-07 13:55:00,67.5,66.9,30.05,WNW,287,0.0,2.0,98,0.27,,,1.90,meteohub,2013-08-07 17:55:00,
2013-08-07 14:00:00,67.6,67.1,30.05,WNW,288,0.0,2.0,98,0.28,,,1.93,meteohub,2013-08-07 18:00:00,
2013-08-07 14:06:00,67.6,66.7,30.05,NW,315,0.0,2.0,97,0.30,,,1.98,meteohub,2013-08-07 18:06:00,
2013-08-07 14:11:00,67.6,66.7,30.05,NW,324,0.0,2.0,97,0.27,,,2.00,meteohub,2013-08-07 18:11:00,
2013-08-07 14:16:00,67.6,66.7,30.04,SSW,212,3.0,5.0,97,0.27,,,2.03,meteohub,2013-08-07 18:16:00,
2013-08-07 14:21:00,67.6,66.7,30.04,SW,231,0.0,5.0,97,0.28,,,2.05,meteohub,2013-08-07 18:21:00,
2013-08-07 14:26:00,67.8,66.9,30.04,NNW,330,0.0,7.0,97,0.27,,,2.06,meteohub,2013-08-07 18:26:00,
2013-08-07 14:31:00,68.2,67.6,30.04,SSW,207,0.0,7.0,98,0.27,,,2.07,meteohub,2013-08-07 18:31:00,
2013-08-07 14:36:00,68.4,67.5,30.04,SE,124,0.0,7.0,97,0.25,,,2.08,meteohub,2013-08-07 18:36:00,
2013-08-07 14:41:00,68.4,67.5,30.04,SSW,210,0.0,2.0,97,0.24,,,2.09,meteohub,2013-08-07 18:41:00,
2013-08-07 14:46:00,68.2,67.3,30.04,SW,232,2.0,4.0,97,0.24,,,2.11,meteohub,2013-08-07 18:46:00,
2013-08-07 14:51:00,68.0,66.7,30.04,NW,307,0.0,6.0,96,0.22,,,2.11,meteohub,2013-08-07 18:51:00,
2013-08-07 14:56:00,67.6,66.4,30.04,West,281,0.0,6.0,96,0.21,,,2.13,meteohub,2013-08-07 18:56:00,
2013-08-07 15:01:00,67.6,66.4,30.04,ESE,113,0.0,6.0,96,0.23,,,2.17,meteohub,2013-08-07 19:01:00,
2013-08-07 15:06:00,67.6,66.7,30.04,North,351,0.0,4.0,97,0.21,,,2.20,meteohub,2013-08-07 19:06:00,
2013-08-07 15:11:00,67.5,66.6,30.04,WNW,294,1.0,1.0,97,0.23,,,2.25,meteohub,2013-08-07 19:11:00,
2013-08-07 15:16:00,67.5,66.6,30.04,WNW,291,0.0,1.0,97,0.26,,,2.29,meteohub,2013-08-07 19:16:00,
2013-08-07 15:21:00,67.3,66.4,30.04,NW,314,0.0,1.0,97,0.27,,,2.32,meteohub,2013-08-07 19:21:00,
2013-08-07 15:26:00,67.3,66.4,30.04,NW,313,0.0,1.0,97,0.33,,,2.39,meteohub,2013-08-07 19:26:00,
2013-08-07 15:31:00,67.3,66.4,30.04,NNW,333,0.0,1.0,97,0.39,,,2.47,meteohub,2013-08-07 19:31:00,
2013-08-07 15:36:00,67.1,66.2,30.03,NNW,340,0.0,1.0,97,0.42,,,2.51,meteohub,2013-08-07 19:36:00,
2013-08-07 15:41:00,66.9,66.0,30.03,ENE,61,0.0,1.0,97,0.46,,,2.56,meteohub,2013-08-07 19:41:00,
2013-08-07 15:46:00,66.9,66.0,30.03,ENE,61,0.0,1.0,97,0.46,,,2.57,meteohub,2013-08-07 19:46:00,
2013-08-07 15:51:00,67.1,66.2,30.03,ENE,59,0.0,1.0,97,0.46,,,2.58,meteohub,2013-08-07 19:51:00,
2013-08-07 15:56:00,67.1,66.2,30.03,NNW,330,0.0,0.0,97,0.46,,,2.60,meteohub,2013-08-07 19:56:00,
2013-08-07 16:01:00,67.3,66.7,30.03,NNW,332,0.0,1.0,98,0.42,,,2.60,meteohub,2013-08-07 20:01:00,
2013-08-07 16:06:00,67.5,66.9,30.02,SSE,166,0.0,1.0,98,0.39,,,2.61,meteohub,2013-08-07 20:06:00,
2013-08-07 16:11:00,67.6,67.1,30.02,SSE,167,0.0,1.0,98,0.35,,,2.61,meteohub,2013-08-07 20:11:00,
2013-08-07 16:16:00,67.8,67.3,30.02,SSE,167,0.0,1.0,98,0.31,,,2.61,meteohub,2013-08-07 20:16:00,
2013-08-07 16:21:00,68.2,67.6,30.02,West,267,0.0,0.0,98,0.26,,,2.61,meteohub,2013-08-07 20:21:00,
2013-08-07 16:26:00,68.5,68.0,30.02,North,1,0.0,1.0,98,0.19,,,2.61,meteohub,2013-08-07 20:26:00,
2013-08-07 16:31:00,68.9,68.4,30.02,NW,317,0.0,1.0,98,0.14,,,2.62,meteohub,2013-08-07 20:31:00,
2013-08-07 16:36:00,69.3,68.7,30.02,NNW,335,0.0,1.0,98,0.08,,,2.62,meteohub,2013-08-07 20:36:00,
2013-08-07 16:41:00,69.1,68.2,30.02,NW,307,0.0,8.0,97,0.06,,,2.62,meteohub,2013-08-07 20:41:00,
2013-08-07 16:46:00,69.4,68.5,30.02,NE,43,0.0,8.0,97,0.04,,,2.62,meteohub,2013-08-07 20:46:00,
2013-08-07 16:51:00,69.8,69.3,30.02,NNE,27,0.0,8.0,98,0.03,,,2.62,meteohub,2013-08-07 20:51:00,
2013-08-07 16:56:00,70.0,69.1,30.02,NNW,328,0.0,2.0,97,0.02,,,2.62,meteohub,2013-08-07 20:56:00,
2013-08-07 17:01:00,70.0,68.7,30.02,WNW,290,0.0,2.0,96,0.02,,,2.62,meteohub,2013-08-07 21:01:00,
2013-08-07 17:07:00,70.2,69.3,30.02,NE,48,0.0,2.0,97,0.01,,,2.62,meteohub,2013-08-07 21:07:00,
2013-08-07 17:12:00,70.3,69.1,30.02,South,172,1.0,1.0,96,0.01,,,2.62,meteohub,2013-08-07 21:12:00,
2013-08-07 17:17:00,70.3,68.9,30.02,SSE,156,0.0,2.0,95,0.01,,,2.62,meteohub,2013-08-07 21:17:00,
2013-08-07 17:22:00,70.3,68.5,30.02,SSW,195,0.0,2.0,94,0.01,,,2.62,meteohub,2013-08-07 21:22:00,
2013-08-07 17:27:00,70.5,69.1,30.01,WNW,303,0.0,2.0,95,0.00,,,2.62,meteohub,2013-08-07 21:27:00,
2013-08-07 17:32:00,70.5,69.1,30.02,NE,52,0.0,2.0,95,0.00,,,2.62,meteohub,2013-08-07 21:32:00,
2013-08-07 17:37:00,70.5,68.7,30.02,North,359,0.0,2.0,94,0.00,,,2.62,meteohub,2013-08-07 21:37:00,
2013-08-07 17:42:00,70.3,68.2,30.02,North,358,0.0,2.0,93,0.00,,,2.62,meteohub,2013-08-07 21:42:00,
2013-08-07 17:47:00,70.0,67.8,30.02,NW,312,0.0,1.0,93,0.00,,,2.62,meteohub,2013-08-07 21:47:00,
2013-08-07 17:52:00,70.0,68.2,30.02,SE,131,0.0,1.0,94,0.00,,,2.62,meteohub,2013-08-07 21:52:00,
2013-08-07 17:57:00,70.0,68.5,30.02,SW,231,0.0,3.0,95,0.00,,,2.62,meteohub,2013-08-07 21:57:00,
2013-08-07 18:02:00,70.0,68.2,30.01,SSW,210,0.0,3.0,94,0.00,,,2.62,meteohub,2013-08-07 22:02:00,
2013-08-07 18:07:00,70.0,68.2,30.02,SSW,193,0.0,1.0,94,0.00,,,2.62,meteohub,2013-08-07 22:07:00,
2013-08-07 18:12:00,70.0,68.5,30.02,South,190,0.0,2.0,95,0.00,,,2.62,meteohub,2013-08-07 22:12:00,
2013-08-07 18:17:00,70.0,68.2,30.02,ESE,120,2.0,2.0,94,0.00,,,2.62,meteohub,2013-08-07 22:17:00,
2013-08-07 18:22:00,70.0,68.2,30.02,ESE,121,0.0,2.0,94,0.00,,,2.62,meteohub,2013-08-07 22:22:00,
2013-08-07 18:27:00,70.2,68.7,30.02,ESE,118,0.0,2.0,95,0.00,,,2.62,meteohub,2013-08-07 22:27:00,
2013-08-07 18:32:00,70.2,68.4,30.02,SW,221,0.0,2.0,94,0.00,,,2.62,meteohub,2013-08-07 22:32:00,
2013-08-07 18:37:00,70.2,68.0,30.01,SSW,198,0.0,2.0,93,0.00,,,2.62,meteohub,2013-08-07 22:37:00,
2013-08-07 18:42:00,70.2,68.0,30.01,SSW,204,0.0,3.0,93,0.00,,,2.62,meteohub,2013-08-07 22:42:00,
2013-08-07 18:47:00,70.3,68.5,30.01,SSW,203,0.0,3.0,94,0.00,,,2.62,meteohub,2013-08-07 22:47:00,
2013-08-07 18:52:00,70.2,68.0,30.01,South,188,0.0,3.0,93,0.00,,,2.62,meteohub,2013-08-07 22:52:00,
2013-08-07 18:57:00,70.2,67.6,30.01,South,188,0.0,1.0,92,0.00,,,2.62,meteohub,2013-08-07 22:57:00,
2013-08-07 19:02:00,70.0,67.8,30.01,South,189,0.0,1.0,93,0.00,,,2.62,meteohub,2013-08-07 23:02:00,
2013-08-07 19:07:00,70.0,67.8,30.01,SSW,195,0.0,1.0,93,0.00,,,2.62,meteohub,2013-08-07 23:07:00,
2013-08-07 19:12:00,69.8,67.6,30.01,SSW,194,0.0,0.0,93,0.00,,,2.62,meteohub,2013-08-07 23:12:00,
2013-08-07 19:17:00,69.4,67.3,30.01,SE,145,0.0,0.0,93,0.00,,,2.62,meteohub,2013-08-07 23:17:00,
2013-08-07 19:22:00,69.4,67.3,30.01,SE,132,0.0,0.0,93,0.00,,,2.62,meteohub,2013-08-07 23:22:00,
2013-08-07 19:27:00,69.3,67.5,30.01,SSW,205,0.0,0.0,94,0.00,,,2.62,meteohub,2013-08-07 23:27:00,
2013-08-07 19:32:00,69.3,67.5,30.01,SSW,205,0.0,1.0,94,0.00,,,2.62,meteohub,2013-08-07 23:32:00,
2013-08-07 19:37:00,69.1,67.3,30.01,SSW,205,0.0,1.0,94,0.00,,,2.62,meteohub,2013-08-07 23:37:00,
2013-08-07 19:42:00,69.1,67.3,30.02,SSW,205,0.0,0.0,94,0.00,,,2.62,meteohub,2013-08-07 23:42:00,
2013-08-07 19:47:00,68.9,67.1,30.02,SSW,205,0.0,0.0,94,0.00,,,2.62,meteohub,2013-08-07 23:47:00,
2013-08-07 19:52:00,68.7,67.3,30.02,SSW,205,0.0,0.0,95,0.00,,,2.62,meteohub,2013-08-07 23:52:00,
2013-08-07 19:57:00,68.7,67.3,30.02,SSW,205,0.0,0.0,95,0.00,,,2.62,meteohub,2013-08-07 23:57:00,
2013-08-07 20:02:00,68.7,67.3,30.02,NW,325,0.0,0.0,95,0.00,,,2.62,meteohub,2013-08-08 00:02:00,
2013-08-07 20:07:00,68.4,66.9,30.02,SSW,208,1.0,1.0,95,0.00,,,0.00,meteohub,2013-08-08 00:07:00,
2013-08-07 20:12:00,68.2,66.7,30.02,West,267,0.0,5.0,95,0.00,,,0.00,meteohub,2013-08-08 00:12:00,
2013-08-07 20:17:00,67.8,66.4,30.01,SSW,203,0.0,5.0,95,0.00,,,0.00,meteohub,2013-08-08 00:17:00,
2013-08-07 20:22:00,67.6,66.2,30.02,West,276,0.0,5.0,95,0.00,,,0.00,meteohub,2013-08-08 00:22:00,
2013-08-07 20:27:00,67.5,66.0,30.02,WSW,250,0.0,5.0,95,0.00,,,0.00,meteohub,2013-08-08 00:27:00,
2013-08-07 20:32:00,67.1,65.8,30.02,WNW,297,0.0,4.0,96,0.00,,,0.00,meteohub,2013-08-08 00:32:00,
2013-08-07 20:37:00,66.9,65.7,30.02,SSW,212,0.0,2.0,96,0.00,,,0.00,meteohub,2013-08-08 00:37:00,
2013-08-07 20:42:00,66.7,65.5,30.02,SSW,207,0.0,2.0,96,0.00,,,0.00,meteohub,2013-08-08 00:42:00,
2013-08-07 20:47:00,66.7,65.5,30.02,SSW,207,0.0,2.0,96,0.00,,,0.00,meteohub,2013-08-08 00:47:00,
2013-08-07 20:52:00,66.7,65.5,30.02,SSW,207,0.0,0.0,96,0.00,,,0.00,meteohub,2013-08-08 00:52:00,
2013-08-07 20:57:00,66.7,65.5,30.02,SSW,206,0.0,0.0,96,0.00,,,0.00,meteohub,2013-08-08 00:57:00,
2013-08-07 21:02:00,66.7,65.5,30.02,SSW,208,0.0,0.0,96,0.00,,,0.00,meteohub,2013-08-08 01:02:00,
2013-08-07 21:07:00,66.6,65.7,30.02,SSW,208,0.0,0.0,97,0.00,,,0.00,meteohub,2013-08-08 01:07:00,
2013-08-07 21:12:00,66.6,65.7,30.02,SSW,209,0.0,0.0,97,0.00,,,0.00,meteohub,2013-08-08 01:12:00,
2013-08-07 21:17:00,66.6,65.7,30.02,NNE,33,0.0,0.0,97,0.00,,,0.00,meteohub,2013-08-08 01:17:00,
2013-08-07 21:22:00,66.4,65.5,30.02,NE,34,0.0,1.0,97,0.00,,,0.00,meteohub,2013-08-08 01:22:00,
2013-08-07 21:27:00,66.4,65.5,30.02,NNE,33,0.0,1.0,97,0.00,,,0.00,meteohub,2013-08-08 01:27:00,
2013-08-07 21:32:00,66.4,65.5,30.02,NNE,33,0.0,1.0,97,0.00,,,0.00,meteohub,2013-08-08 01:32:00,
2013-08-07 21:37:00,66.4,65.5,30.03,NNE,32,0.0,0.0,97,0.00,,,0.00,meteohub,2013-08-08 01:37:00,
2013-08-07 21:42:00,66.2,65.3,30.03,NNE,33,0.0,0.0,97,0.00,,,0.00,meteohub,2013-08-08 01:42:00,
2013-08-07 21:47:00,66.2,65.3,30.03,NNE,33,0.0,0.0,97,0.00,,,0.00,meteohub,2013-08-08 01:47:00,
2013-08-07 21:52:00,66.0,65.1,30.03,NNE,33,0.0,0.0,97,0.00,,,0.00,meteohub,2013-08-08 01:52:00,
2013-08-07 21:57:00,66.0,65.1,30.03,NNE,33,0.0,0.0,97,0.00,,,0.00,meteohub,2013-08-08 01:57:00,
2013-08-07 22:02:00,66.0,65.1,30.04,NNE,33,0.0,0.0,97,0.00,,,0.00,meteohub,2013-08-08 02:02:00,
2013-08-07 22:07:00,65.8,64.9,30.04,NNE,33,0.0,0.0,97,0.00,,,0.00,meteohub,2013-08-08 02:07:00,
2013-08-07 22:12:00,65.8,64.9,30.04,SW,233,0.0,0.0,97,0.00,,,0.00,meteohub,2013-08-08 02:12:00,
2013-08-07 22:17:00,65.8,64.9,30.04,SW,232,0.0,0.0,97,0.00,,,0.00,meteohub,2013-08-08 02:17:00,
2013-08-07 22:22:00,65.7,64.8,30.04,SW,232,0.0,0.0,97,0.00,,,0.00,meteohub,2013-08-08 02:22:00,
2013-08-07 22:27:00,65.5,64.6,30.04,SW,232,0.0,0.0,97,0.00,,,0.00,meteohub,2013-08-08 02:27:00,
2013-08-07 22:32:00,65.5,64.6,30.04,SW,232,0.0,0.0,97,0.00,,,0.00,meteohub,2013-08-08 02:32:00,
2013-08-07 22:37:00,65.5,64.6,30.04,SW,232,0.0,0.0,97,0.00,,,0.00,meteohub,2013-08-08 02:37:00,
2013-08-07 22:42:00,65.3,64.8,30.05,SW,232,0.0,0.0,98,0.00,,,0.00,meteohub,2013-08-08 02:42:00,
2013-08-07 22:47:00,65.5,64.9,30.05,SW,232,0.0,0.0,98,0.00,,,0.00,meteohub,2013-08-08 02:47:00,
2013-08-07 22:52:00,65.5,64.9,30.05,SW,231,0.0,0.0,98,0.00,,,0.00,meteohub,2013-08-08 02:52:00,
2013-08-07 22:57:00,65.3,64.8,30.05,SW,231,0.0,0.0,98,0.00,,,0.00,meteohub,2013-08-08 02:57:00,
2013-08-07 23:03:00,65.1,64.6,30.05,SW,232,0.0,0.0,98,0.00,,,0.00,meteohub,2013-08-08 03:03:00,
2013-08-07 23:08:00,64.9,64.4,30.05,SW,231,0.0,0.0,98,0.00,,,0.00,meteohub,2013-08-08 03:08:00,
2013-08-07 23:13:00,64.9,64.4,30.05,SW,231,0.0,0.0,98,0.00,,,0.00,meteohub,2013-08-08 03:13:00,
2013-08-07 23:18:00,64.9,64.4,30.05,SW,231,0.0,0.0,98,0.00,,,0.00,meteohub,2013-08-08 03:18:00,
2013-08-07 23:23:00,64.9,64.4,30.05,SW,232,0.0,0.0,98,0.00,,,0.00,meteohub,2013-08-08 03:23:00,
2013-08-07 23:28:00,64.9,64.4,30.05,SW,232,0.0,0.0,98,0.00,,,0.00,meteohub,2013-08-08 03:28:00,
2013-08-07 23:33:00,65.1,64.6,30.05,SW,232,0.0,0.0,98,0.00,,,0.00,meteohub,2013-08-08 03:33:00,
2013-08-07 23:38:00,65.1,64.6,30.05,SW,231,0.0,0.0,98,0.00,,,0.00,meteohub,2013-08-08 03:38:00,
2013-08-07 23:43:00,65.3,64.8,30.05,SW,232,0.0,0.0,98,0.00,,,0.00,meteohub,2013-08-08 03:43:00,
2013-08-07 23:48:00,65.5,64.9,30.05,SW,232,0.0,0.0,98,0.00,,,0.00,meteohub,2013-08-08 03:48:00,
2013-08-07 23:53:00,65.5,64.9,30.05,SW,232,0.0,0.0,98,0.00,,,0.00,meteohub,2013-08-08 03:53:00,
2013-08-07 23:58:00,65.3,64.8,30.05,SW,232,0.0,0.0,98,0.00,,,0.00,meteohub,2013-08-08 03:58:00,